FREGAT R/B

Last updated on Tue Apr 07 2026 00:02:10 GMT+0000 (Coordinated Universal Time)

1 68572U 26071B 26093.32132148 -.00001541 00000+0 35052-3 0 9997 2 68572 63.0589 237.9448 7313819 284.9724 10.3188 2.01041412 13
UTC large
Height (km)
Speed (km/s)
/
Latitude / Longitude
Inclination (degrees)
Orbital Period (minutes)
Azimuth
Elevation
Range (km)
Doppler Factor

Next 0 passes for location: London (51.5072 / 0.1276)

Sorry there are no passes over London.
FREGAT R/B